Regional Weather Roundup
Issued by NWS Boston, MA

Home | Current Version | Previous Version | Text Only | Print | Product List | Glossary On
Versions: 1 2 3 4 5 6 7 8 9 10 11 12 13 14 15 16 17 18 19 20 21 22 23 24 25 26 27 28 29 30 31 32 33 34 35 36 37 38 39 40 41 42 43 44 45 46 47 48 49
000
ASUS41 KBOX 200610
RWRBOX

REGIONAL WEATHER ROUNDUP
NATIONAL WEATHER SERVICE TAUNTON MA
100 AM EST SAT DEC 20 2014

NOTE:  "FAIR" INDICATES FEW OR NO CLOUDS BELOW 12,000 FEET WITH NO
SIGNIFICANT WEATHER AND/OR OBSTRUCTIONS TO VISIBILITY.  THE FOLLOWING
OBSERVATION LOCATIONS DO NOT REPORT PRESENT WEATHER...PROVINCETOWN...
SMITHFIELD...BLOCK ISLAND...KEENE...AND OXFORD.

MAZALL-200700-
EASTERN MASSACHUSETTS

CITY           SKY/WX    TMP DP  RH WIND       PRES   REMARKS
BOSTON         CLEAR     28  21  75 NW7       30.17R WCI  21
6HR MIN TEMP:  28; 6HR MAX TEMP:  32;

BEVERLY        CLEAR     26  19  74 NW9       30.15R WCI  17
LAWRENCE       CLEAR     25  19  78 N6        30.18R WCI  18
BEDFORD        CLEAR     24  19  81 W3        30.16R
BLUE HILL        N/A     25  20  81 N13       30.11R WCI  14
NORWOOD        CLEAR     27  20  75 CALM      30.16R
MARSHFIELD     CLOUDY    32  27  80 CALM      30.17R
PLYMOUTH       CLOUDY    29  22  75 NW5       30.15R WCI  24
TAUNTON        MOCLDY    25  22  88 CALM      30.15R
NEW BEDFORD    PTCLDY    28  21  75 NW5       30.14R WCI  23
$$

MAZALL-200700-
CAPE COD AND THE ISLANDS

CITY           SKY/WX    TMP DP  RH WIND       PRES   REMARKS
FALMOUTH       CLOUDY    30  21  69 VRB5      30.14R WCI  25
HYANNIS        CLOUDY    34  26  72 NW6       30.12R WCI  29
CHATHAM        CLOUDY    35  27  72 VRB5      30.12S WCI  31
PROVINCETOWN   CLOUDY    37  28  70 N12G17    30.12S WCI  30
NANTUCKET      CLOUDY    37  27  67 NW10      30.12R WCI  30
MARTHAS VNYRD  CLOUDY    32  21  64 N12       30.13R WCI  23
$$

MAZALL-200700-
CENTRAL AND WESTERN MASSACHUSETTS

CITY           SKY/WX    TMP DP  RH WIND       PRES   REMARKS
WORCESTER      CLEAR     24  18  77 N8        30.10S WCI  15
6HR MIN TEMP:  23; 6HR MAX TEMP:  28;

FITCHBURG      CLEAR     25  18  74 N3        30.17R
ORANGE         CLEAR     24  17  74 N6        30.16R WCI  17
SPRINGFIELD    CLEAR     26  18  73 N7        30.17R WCI  18
WESTFIELD      CLEAR     24  18  77 N6        30.17R WCI  17
NORTH ADAMS    CLOUDY    24  17  74 W7        30.18R WCI  16
PITTSFIELD     CLOUDY    23  17  78 N9G18     30.12R WCI  13
$$

RIZALL-200700-
RHODE ISLAND

CITY           SKY/WX    TMP DP  RH WIND       PRES   REMARKS
PROVIDENCE     CLEAR     27  20  75 NW5       30.16R WCI  22
6HR MIN TEMP:  27; 6HR MAX TEMP:  34;

NEWPORT        CLEAR     29  20  69 N7        30.14R WCI  22
BLOCK ISLAND   MOCLDY    32  19  59 NW5       30.15R WCI  27
SMITHFIELD     CLEAR     23  14  68 NW5       30.13R WCI  17
WESTERLY       CLEAR     29  22  75 W3        30.17R
$$

CTZALL-200700-
CONNECTICUT

CITY           SKY/WX    TMP DP  RH WIND       PRES   REMARKS
BRADLEY INTL   PTCLDY    27  19  72 N6        30.17R WCI  20
6HR MIN TEMP:  26; 6HR MAX TEMP:  32;

HARTFORD       CLEAR     29  20  69 N7        30.19R WCI  22
BRIDGEPORT     CLOUDY    30  21  69 NW5       30.20R WCI  25
DANBURY        CLOUDY    28  18  66 N8        30.19R WCI  20
GROTON         MOCLDY    29  21  72 NW6       30.17R WCI  23
NEW HAVEN      CLOUDY    33  21  61 N5        30.19R WCI  29
CHESTER        FAIR      30  23  74 NW6       30.16S WCI  24
MERIDEN        CLOUDY    30  20  66 NW7       30.18R WCI  23
WILLIMANTIC    CLEAR     27  20  75 CALM      30.17R
OXFORD         CLOUDY    27  16  63 N8        30.17R WCI  18
$$

MEZ002-015-021-024-NHZ003-005-008-011-012-014-VTZ005-008-200700-
NORTHERN NEW ENGLAND

CITY           SKY/WX    TMP DP  RH WIND       PRES   REMARKS
PORTLAND ME    CLEAR     27  18  69 CALM      30.17R
6HR MIN TEMP:  26; 6HR MAX TEMP:  32;

BANGOR ME      CLEAR     16  14  92 CALM      30.18R
CONCORD NH     PTCLDY    23  18  81 NW5       30.17R WCI  17
MANCHESTER NH  PTCLDY    25  19  78 N9        30.16R WCI  15
NASHUA NH      CLEAR     25  20  81 NW5       30.18R WCI  19
PORTSMOUTH NH  PTCLDY    25  20  82 W3        30.16R
JAFFREY NH     CLEAR     20  17  88 CALM      30.13R
KEENE NH       PTCLDY    25  18  74 N6        30.17S WCI  18
BURLINGTON VT  PTCLDY    18  12  77 CALM      30.24S
MT. WASHINGTON PTCLDY    23  16  74 NE18        N/A  WCI   9
$$

NYZ052-076-200700-
EASTERN NEW YORK

CITY           SKY/WX    TMP DP  RH WIND       PRES   REMARKS
ALBANY         CLOUDY    26  18  71 NW10      30.23R WCI  16
6HR MIN TEMP:  26; 6HR MAX TEMP:  29;

NEW YORK CITY  CLOUDY    32  22  66 N10       30.19F WCI  24
6HR MIN TEMP:  32; 6HR MAX TEMP:  33;

$$

ANZALL-200700-
MARINE OBSERVATIONS

STATION/POSITION TIME  TEMP    WIND        PRES    VSBY  WAVE
                       AIR SEA DIR/SP/G                  HT/PER
                 (UTC) (F)     (DEG/KT/KT) (MB)    (MI)  (FT/S)
BOSTON BUOY      0550   33 45  340/ 14/ 17 1020.8R         2/ 3
BUZZARDS BAY     0500          360/ 13/ 14 1020.8R
NANTUCKET SOUND  0550   36 43  340/ 16/ 17 1019.5R         2/ 4
MASS BAY-STELLWA NOT AVBL
ISLE OF SHOALS   0600   31     340/ 13/ 15 1020.6R
S OF BLOCK IS    0508      52                N/A           2/ 5
$$

......................KEY.........................
  SKY/WX - SKY CONDITION/PRESENT WEATHER
  TMP    - TEMPERATURE IN FAHRENHEIT
  DWPT   - DEWPOINT IN FAHRENHEIT
  RH     - RELATIVE HUMIDITY IN PERCENT
  WIND   - DIRECTION AND SPEED IN MPH
  PRES   - MEAN SEA LEVEL PRESSURE IN INCHES OF HG
  WCI    - WIND CHILL INDEX
  VSB    - VISIBILITY IN MILES
  HX     - HEAT INDEX
  TC     - TEMPERATURE IN CELSIUS
  VRB    - VARIABLE WIND DIRECTION
  N/A    - NOT AVAILABLE


USA.gov is the U.S. government's official web portal to all federal, state and local government web resources and services.